GEFSSE_500_meanwind_000.txt.gz
Wind_Speed
8 8 8 6 5 5 4 3 4 3 1 2 3 3 4 5 7 8 7 9 11 13 14 14 15 18 20 21 22 23 25 27 29 30 30 31 33 35 36 37 37 37 37
8 9 8 5 4 3 3 3 3 3 1 1 2 3 4 7 9 7 7 9 12 15 15 14 16 18 18 20 22 25 27 29 30 30 30 32 33 34 36 37 36 35 35
9 9 8 5 3 2 3 2 3 3 2 1 2 3 6 10 10 6 7 9 13 14 14 16 17 16 17 21 23 26 28 31 32 33 34 34 34 34 34 35 35 33 33
10 10 8 5 3 2 3 4 3 3 3 2 3 6 9 10 8 7 8 11 14 14 15 16 18 18 19 21 24 27 30 34 36 36 36 35 33 33 33 33 33 32 30
11 10 9 6 3 4 5 6 6 6 5 5 6 8 10 10 9 8 10 13 15 16 16 18 21 21 21 23 26 29 32 36 38 37 36 33 32 31 31 30 29 26 24
11 10 8 6 4 5 7 8 9 8 7 7 8 10 12 11 10 11 12 14 17 18 19 21 24 24 24 24 26 30 34 36 37 37 35 32 30 30 29 27 26 23 21
12 10 8 5 3 5 8 9 10 10 10 10 11 12 13 13 13 14 15 16 19 21 22 24 26 26 26 26 28 30 32 35 37 37 34 30 27 26 23 21 18 17 16
13 10 8 5 5 5 7 8 10 11 12 12 13 14 15 14 15 16 18 19 22 24 25 26 27 28 28 28 29 30 31 34 37 36 32 29 24 21 18 16 15 14 15
13 10 8 6 5 4 5 7 9 10 12 15 16 16 16 15 17 19 21 23 25 26 27 27 29 29 28 28 28 30 31 33 35 36 31 25 19 15 13 13 13 14 14
13 11 8 7 6 5 6 8 10 12 14 17 18 18 17 18 19 21 24 26 27 28 29 29 30 30 29 28 28 30 31 32 33 34 31 24 17 12 10 10 9 8 7
14 12 10 9 9 10 10 11 12 13 15 18 18 18 18 20 22 24 27 29 30 31 31 31 31 30 30 30 29 30 31 31 32 33 30 25 18 13 9 9 8 7 7
14 13 13 12 13 14 15 14 13 14 17 18 17 18 19 20 23 26 29 30 30 31 31 31 31 31 31 32 31 31 32 33 32 32 30 25 19 14 13 11 10 9 9
16 16 16 15 15 17 18 18 16 16 19 19 17 18 20 22 24 26 28 29 29 31 31 31 32 32 32 33 33 33 33 33 33 32 29 25 20 18 16 15 15 14 11
18 18 18 17 17 18 18 19 19 19 22 20 18 19 20 22 23 27 30 32 32 32 32 32 32 32 33 34 34 34 35 34 34 32 30 27 23 21 20 18 19 18 17
20 21 22 21 21 21 20 20 22 24 25 22 20 21 21 21 24 28 31 32 32 31 31 31 31 33 34 35 35 35 36 35 36 35 32 29 26 25 23 23 23 23 23
24 25 25 25 26 29 29 29 29 30 29 25 23 23 22 22 25 29 32 33 32 31 31 32 32 33 34 35 36 36 36 36 37 36 35 32 28 29 29 28 28 28 28
31 30 31 30 31 32 31 31 31 31 29 27 25 24 25 24 27 30 32 34 33 33 32 31 33 34 36 37 37 37 37 36 37 37 37 36 32 30 33 33 33 34 34
31 30 30 30 30 30 30 29 29 28 27 25 25 27 28 28 30 32 33 35 34 34 34 33 33 35 37 37 38 38 38 37 38 37 37 39 36 32 34 37 37 39 40
30 29 27 26 27 28 29 27 26 26 25 26 28 30 31 32 34 34 35 36 36 36 36 35 36 37 39 39 39 40 40 40 39 39 39 40 39 38 37 37 41 42 43
31 30 29 27 27 28 28 27 27 26 28 30 32 33 34 35 37 38 39 39 39 39 40 40 40 41 42 43 43 42 41 41 40 41 42 41 40 41 41 39 41 44 46
31 30 29 28 28 27 29 29 30 30 32 34 36 37 37 38 40 41 43 43 43 43 43 45 45 44 44 46 46 46 45 43 42 43 43 43 42 42 44 42 42 44 46
28 28 29 30 31 31 31 31 31 32 35 38 40 42 43 43 43 45 46 48 49 48 47 47 47 46 45 46 47 49 48 46 45 45 44 43 43 44 45 43 43 45 47
28 29 30 31 32 33 34 33 33 34 38 42 44 46 48 48 48 48 50 51 53 53 52 51 52 52 51 50 50 50 50 49 49 48 46 44 44 44 45 43 43 45 47
25 27 28 30 31 33 34 34 34 37 40 45 48 50 52 52 53 54 55 56 57 57 56 55 55 55 55 54 54 54 53 51 50 49 47 46 46 46 45 43 43 44 46
25 26 27 27 28 29 31 33 35 37 42 46 49 52 54 55 57 58 59 59 60 61 61 60 60 59 59 59 58 57 55 54 52 50 47 47 46 46 45 42 42 44 45
30 31 32 32 33 33 35 36 39 41 44 47 50 53 55 57 59 60 61 61 62 62 63 64 65 64 63 62 61 60 59 59 54 52 50 48 46 43 44 41 40 42 44

GEFSSE_500_meanwind_006.txt.gz
Wind_Speed
11 11 9 7 7 7 6 7 6 4 1 1 1 0 2 4 7 9 8 8 9 12 12 11 11 12 13 14 16 18 21 23 25 27 29 31 32 34 34 33 33 33 31
11 10 8 7 6 6 6 7 6 3 2 1 1 2 3 6 9 10 9 9 11 14 14 13 13 14 15 16 17 19 21 23 25 27 28 30 33 34 35 34 32 30 28
10 9 7 7 6 5 4 6 4 2 2 2 3 3 5 8 10 10 10 10 12 15 15 14 15 16 17 18 18 20 22 23 25 27 29 31 33 35 35 33 30 27 26
10 9 7 7 6 5 4 5 3 2 3 4 4 5 7 9 11 12 12 13 15 16 16 16 17 18 19 20 20 21 22 24 25 27 30 32 33 35 34 33 30 25 23
9 8 8 9 7 6 6 6 5 5 5 7 7 7 9 11 12 14 15 16 18 19 19 20 21 22 23 23 22 22 23 25 26 28 31 33 34 35 33 32 30 25 21
9 9 9 9 8 7 9 8 7 7 8 9 9 10 11 12 13 15 17 19 20 21 23 25 27 28 28 26 25 25 25 26 28 29 31 34 36 36 34 31 29 25 20
11 9 10 9 8 8 10 10 9 9 10 11 11 12 13 14 15 16 18 20 22 24 26 29 31 32 31 28 26 26 27 29 30 32 33 35 37 38 36 31 27 24 19
12 11 11 10 10 10 11 11 10 10 10 11 12 12 14 15 16 16 19 21 24 26 27 29 30 30 29 28 27 27 29 30 32 34 34 35 37 38 37 34 28 24 20
13 13 12 11 11 11 11 10 10 9 10 11 12 13 15 16 16 17 19 21 22 23 24 26 26 26 26 26 26 28 29 30 32 34 35 36 37 38 37 35 30 25 22
15 14 14 13 12 12 11 10 10 10 10 11 12 14 15 16 16 17 18 20 20 23 25 26 27 27 26 26 26 27 28 30 32 34 35 36 37 38 36 35 32 27 25
15 15 15 15 15 14 13 13 13 13 13 12 13 15 17 17 18 18 19 19 21 24 26 28 28 28 28 28 27 28 29 30 31 33 35 36 37 38 37 36 34 30 28
16 16 16 16 16 16 15 15 16 17 17 17 18 18 19 20 20 20 21 20 22 25 28 29 29 29 29 29 29 29 30 31 33 35 36 37 38 38 37 36 35 33 31
17 17 17 17 17 17 17 17 18 19 20 21 22 23 23 23 22 22 23 22 23 26 27 27 28 29 29 29 29 30 31 33 34 36 37 37 38 39 39 37 36 35 33
18 18 18 18 18 19 19 19 20 20 21 24 26 27 27 26 25 25 25 24 25 27 28 28 29 30 30 30 30 31 32 34 35 37 38 39 40 40 40 40 38 36 35
19 19 20 21 21 21 22 23 23 23 25 27 30 32 32 30 29 28 28 28 28 30 31 33 33 34 35 34 34 35 35 36 38 39 40 41 41 41 41 41 41 40 39
19 18 20 22 23 24 26 28 29 30 32 34 35 36 36 34 31 31 31 32 32 33 35 37 38 38 39 39 40 40 40 40 40 41 41 42 43 44 43 43 42 42 42
20 20 21 24 27 29 30 30 31 32 33 34 34 35 35 33 32 32 33 34 35 35 36 39 41 42 42 43 44 44 44 44 44 44 44 44 45 46 46 46 45 44 43
21 24 27 29 29 30 30 29 29 29 29 30 32 33 34 33 32 33 35 37 38 38 38 40 43 44 45 45 47 48 48 48 47 47 47 47 47 48 48 49 49 48 46
25 29 32 32 30 29 30 29 28 29 30 31 31 33 35 36 36 37 38 39 41 41 41 43 45 46 47 47 49 50 51 50 49 49 49 49 50 51 51 52 52 51 50
30 33 33 32 30 29 28 28 29 30 31 33 34 36 37 39 40 40 41 43 44 44 44 47 47 48 49 51 52 52 52 51 51 51 52 52 53 53 54 55 55 53 52
32 32 32 31 29 28 28 28 29 31 33 35 37 38 39 41 42 43 44 46 47 47 48 50 52 52 52 53 54 55 55 54 53 55 55 56 55 56 57 58 59 58 56
30 30 29 28 28 28 28 30 32 33 35 38 40 41 42 43 44 45 46 48 49 50 51 53 56 56 55 55 56 57 58 56 55 56 56 57 56 57 59 61 62 62 61
28 28 27 27 28 29 30 31 32 34 36 38 40 41 42 44 45 46 47 49 50 52 53 54 56 58 58 58 59 60 61 61 59 57 56 56 57 59 62 63 62 61 61
26 26 27 28 29 30 31 33 34 35 37 39 41 41 41 42 43 45 47 50 52 54 55 56 58 60 61 62 63 64 64 64 65 64 61 60 61 62 62 64 63 60 59
27 28 29 31 33 34 36 38 40 41 43 45 47 48 49 49 49 51 54 57 59 60 61 62 62 63 64 65 66 66 66 65 63 65 65 64 66 65 63 61 59 58 59
30 32 33 36 38 40 42 44 45 47 48 50 51 53 54 55 56 57 59 61 62 63 64 65 65 65 66 67 67 67 68 67 65 66 68 68 69 65 62 59 57 55 56

GEFSSE_500_meanwind_012.txt.gz
Wind_Speed
10 11 10 9 7 5 6 6 5 5 5 5 6 8 8 7 5 6 6 7 8 9 10 12 13 15 15 16 16 17 17 18 18 18 18 20 22 24 27 29 30 30 30
9 9 8 8 6 5 6 6 6 6 6 7 7 7 8 7 6 6 6 7 8 10 12 13 15 17 18 19 20 21 21 21 21 20 20 21 23 26 28 29 31 31 30
8 7 7 7 7 6 5 6 6 7 7 8 8 8 7 7 7 6 7 8 10 12 14 16 18 20 22 23 24 24 24 24 23 22 22 23 24 27 29 30 31 31 30
7 6 7 7 7 6 5 5 7 8 7 8 9 9 8 8 8 7 8 10 12 13 15 17 19 21 23 25 26 27 27 25 24 24 23 24 26 28 30 31 32 31 30
8 7 8 7 7 6 6 7 8 9 9 9 10 10 10 10 10 10 11 12 12 14 15 17 18 20 22 24 25 25 25 24 24 24 24 25 26 28 29 31 31 31 30
10 8 9 9 8 7 6 8 10 11 11 12 11 11 11 12 12 12 13 14 13 13 14 15 18 20 22 22 22 22 21 21 21 22 23 24 25 27 28 29 29 29 28
12 10 10 10 9 9 8 8 10 12 13 14 13 12 12 12 13 14 15 15 14 13 13 15 18 19 21 21 20 20 19 18 19 20 21 23 24 25 27 28 27 27 27
13 12 11 11 11 11 10 9 9 11 13 14 13 12 12 13 14 16 17 16 14 13 13 14 16 18 19 19 19 19 19 18 18 19 20 21 23 24 25 26 26 27 27
14 13 12 13 13 12 11 9 9 10 11 12 12 12 13 14 15 17 17 16 15 14 14 14 15 16 18 18 18 18 18 18 19 19 20 21 23 24 25 25 27 27 28
14 14 14 14 14 13 12 11 10 10 11 12 13 15 15 16 17 17 18 18 18 17 17 17 16 17 18 19 19 18 18 19 20 22 22 23 24 25 27 27 28 29 30
15 15 15 15 16 15 14 13 13 13 14 15 17 18 20 21 20 20 20 21 21 21 21 21 21 20 21 21 22 22 21 21 22 24 26 27 28 29 30 31 32 33 32
16 16 17 16 17 16 15 15 15 16 17 19 20 22 23 25 25 25 24 24 25 25 25 25 25 26 26 26 27 26 26 26 26 27 29 30 31 33 34 34 35 36 36
17 17 18 18 18 18 17 17 17 19 21 22 24 25 26 27 28 29 30 29 30 30 30 30 30 31 31 31 31 30 30 29 29 30 31 33 34 35 36 37 37 38 38
19 18 19 19 19 19 19 19 20 22 23 25 27 28 29 30 31 33 35 35 35 35 35 35 35 35 35 35 35 34 34 34 33 34 35 36 38 38 39 40 40 40 40
21 21 19 19 20 20 21 22 23 24 26 28 30 32 33 35 36 38 39 39 40 39 38 39 40 40 39 38 38 39 39 39 39 38 39 39 40 41 41 41 42 42 43
22 23 21 19 20 21 23 24 25 27 29 31 33 34 36 38 39 39 40 41 41 41 40 41 42 43 43 43 43 43 44 44 44 44 44 44 43 43 43 43 43 44 45
24 23 21 20 21 22 24 26 28 29 30 32 34 34 35 37 38 39 41 41 42 41 41 42 44 45 47 47 48 49 49 49 48 48 48 48 47 46 45 45 45 46 47
24 22 21 21 23 25 28 29 31 31 31 32 33 34 35 36 37 38 39 40 41 41 42 43 44 46 49 50 52 53 53 53 52 51 50 51 50 50 49 48 48 49 49
22 20 20 23 26 29 31 31 31 30 30 30 31 33 34 35 35 36 37 38 40 41 42 44 46 47 49 51 54 55 55 55 54 52 52 53 53 53 53 51 51 51 51
20 21 23 26 28 30 31 30 29 27 27 27 28 30 31 33 34 35 36 38 41 42 43 45 47 49 50 52 55 56 56 57 55 54 56 57 57 57 56 53 53 53 53
22 25 27 29 29 28 28 27 27 26 26 27 28 29 31 33 35 36 37 39 41 42 43 44 47 48 50 53 55 57 58 58 57 57 59 60 59 59 58 56 55 54 53
27 29 31 30 29 27 26 26 26 27 28 30 31 33 35 37 40 42 43 45 47 48 49 51 52 54 54 56 58 61 61 60 58 61 62 62 61 61 59 58 56 55 54
31 32 32 31 29 28 27 28 28 30 32 34 36 39 42 44 46 49 50 52 53 54 55 56 58 59 60 60 61 64 66 65 63 61 62 63 62 61 59 59 58 57 55
32 32 31 30 30 30 31 32 33 35 37 39 42 44 47 49 51 53 54 55 56 58 59 60 62 63 64 64 64 66 68 70 71 69 64 63 64 63 61 60 59 57 55
29 29 30 30 31 33 34 36 38 39 41 43 45 47 49 51 53 55 57 59 60 62 64 65 67 68 69 70 71 71 71 72 72 74 72 66 64 63 61 61 59 57 55
28 29 30 31 33 35 36 38 40 41 43 45 48 50 52 54 57 59 61 63 64 65 67 68 69 70 71 72 72 72 71 70 68 68 69 67 64 60 59 60 60 58 56

GEFSSE_500_meanwind_018.txt.gz
Wind_Speed
13 12 13 13 12 11 11 11 10 9 9 9 8 8 8 8 9 8 8 7 7 8 8 10 12 13 15 16 17 19 20 22 23 23 24 24 23 23 23 24 25 25 25
13 13 14 12 12 11 11 12 12 11 11 11 10 9 9 10 10 10 10 9 9 10 11 12 13 14 15 16 18 20 21 23 24 24 25 24 24 23 24 25 25 25 25
12 13 12 12 12 12 12 13 12 12 12 12 11 10 10 10 11 11 11 11 11 12 13 13 13 14 15 16 19 21 22 23 23 23 22 22 22 22 22 23 23 22 22
11 12 11 12 13 12 13 13 12 12 13 12 11 11 11 11 11 12 12 13 14 14 15 15 14 14 16 18 19 21 22 21 20 19 18 18 18 19 19 19 18 19 19
10 10 11 13 13 13 13 12 12 12 12 12 12 12 13 13 13 14 14 15 16 16 16 15 15 15 16 18 19 21 21 20 17 16 15 15 15 15 15 15 16 17 17
11 11 11 13 14 14 14 12 12 13 14 14 14 15 15 15 14 15 16 18 18 18 18 17 16 16 17 17 18 18 19 18 16 14 13 13 13 13 14 14 15 16 17
11 11 12 12 14 15 15 14 12 13 15 17 18 18 18 17 16 17 18 19 19 20 19 19 18 18 17 17 16 16 17 17 16 14 13 13 13 14 15 16 17 18 19
12 12 12 12 13 15 15 15 14 13 15 17 19 20 19 18 18 18 18 19 19 20 20 20 20 20 20 19 18 17 17 18 18 17 17 16 17 17 18 19 20 21 23
13 13 13 13 14 14 15 15 15 15 15 16 17 18 19 19 19 19 19 19 20 20 20 21 22 23 23 24 24 23 22 21 21 21 22 22 22 22 22 23 24 25 25
14 14 14 14 15 15 16 16 17 17 17 17 17 18 19 19 20 21 21 22 23 23 23 24 25 26 27 28 29 29 29 28 28 28 27 27 27 27 27 28 28 29 30
14 14 15 15 16 17 18 19 20 20 20 20 20 21 21 22 23 24 26 27 29 29 29 30 30 31 32 33 34 35 35 35 35 34 34 33 33 33 33 33 34 34 35
14 14 15 15 16 18 19 20 22 23 23 23 23 24 25 26 27 28 30 31 33 34 35 35 35 36 37 38 39 39 40 40 41 40 40 39 39 39 39 40 40 40 41
15 15 15 16 17 18 20 22 23 25 26 25 26 27 28 29 30 32 34 35 37 38 38 39 40 41 42 43 43 43 44 44 45 45 45 45 45 45 45 45 46 46 46
16 16 16 17 19 20 21 22 24 25 26 27 27 28 30 32 34 36 38 39 40 41 42 43 44 45 45 46 46 46 46 46 46 47 48 49 50 51 51 51 51 51 51
18 19 20 20 21 21 22 23 24 25 27 28 29 31 33 35 37 39 40 41 42 43 43 43 44 45 45 45 46 46 46 46 46 47 49 50 52 53 54 55 55 55 55
20 22 23 23 23 23 22 23 23 25 26 28 31 33 35 38 41 41 42 42 42 41 40 40 41 42 43 44 45 45 46 46 47 48 49 50 51 52 53 54 55 56 56
24 25 25 25 24 23 22 22 23 25 27 30 33 36 38 40 41 41 40 40 40 39 38 39 39 40 41 42 43 44 45 46 47 48 50 50 51 52 53 54 55 56 56
27 27 27 25 24 23 22 23 24 27 30 32 35 37 38 39 39 38 37 36 37 37 37 37 38 39 40 41 43 44 45 46 47 48 50 51 52 53 54 55 56 56 56
29 28 27 25 23 23 23 24 27 30 32 34 35 36 36 36 36 35 34 35 35 35 36 38 39 41 42 44 46 47 48 49 51 52 53 54 56 57 57 59 60 60 59
27 26 25 25 23 23 24 26 29 32 34 35 35 35 35 34 34 34 34 35 37 38 39 42 44 45 47 49 51 51 51 52 53 54 56 58 59 60 62 63 63 64 64
25 24 24 24 25 26 27 29 32 33 35 35 35 35 35 35 35 36 37 39 41 42 44 46 49 50 52 55 57 57 57 57 58 58 60 61 62 62 64 65 66 66 66
23 23 24 26 28 29 31 33 34 34 35 35 35 36 36 37 38 40 41 43 45 47 49 51 54 56 57 59 61 63 63 61 59 60 61 62 62 63 63 64 64 65 65
22 23 26 28 31 33 34 34 34 34 35 35 36 37 38 40 42 44 46 48 50 52 54 55 57 59 60 60 62 65 67 67 66 63 63 63 64 65 65 66 66 66 66
24 26 29 31 33 33 34 33 33 34 36 37 38 40 42 44 46 48 50 52 53 55 56 57 59 61 62 63 65 67 69 72 73 73 71 71 70 70 69 69 69 68 68
29 30 31 32 32 32 32 33 35 36 38 40 42 44 45 47 49 51 52 54 56 58 59 61 63 65 67 69 71 73 75 77 80 83 82 81 81 80 79 77 74 72 69
32 32 32 31 31 32 34 36 37 39 41 43 44 46 48 49 51 53 56 59 61 63 66 68 70 73 75 77 79 81 84 86 87 90 91 90 90 88 87 85 83 79 75

GEFSSE_500_meanwind_024.txt.gz
Wind_Speed
17 18 17 16 16 16 16 15 14 14 14 15 15 13 13 13 14 13 12 11 10 11 11 11 12 13 14 15 15 15 16 18 20 22 23 24 25 25 25 25 25 25 24
17 18 15 15 15 15 15 15 15 14 14 15 15 15 14 14 14 13 13 13 12 13 13 13 14 14 15 16 17 16 17 19 21 23 24 25 24 23 22 21 21 22 21
17 16 15 15 15 15 14 14 14 14 14 15 16 16 15 15 14 13 14 14 15 15 15 15 15 16 17 18 18 17 18 20 22 23 23 23 22 20 18 18 17 17 17
14 13 13 13 14 14 14 14 14 14 14 14 16 17 17 16 15 14 14 15 16 16 16 17 17 18 18 19 19 18 18 19 21 21 21 20 19 17 15 14 14 13 13
13 12 12 12 13 14 15 15 15 15 14 14 16 17 18 17 16 16 16 17 18 18 18 18 18 19 20 20 20 19 19 19 20 20 19 18 17 15 14 13 13 13 14
13 12 12 12 13 15 16 16 16 15 14 14 16 17 19 19 18 18 18 19 20 20 19 19 19 20 20 21 22 21 21 20 21 21 21 19 18 17 16 16 17 17 17
12 12 12 13 14 15 16 17 17 17 16 15 15 17 20 21 21 21 21 22 22 21 20 19 19 20 20 21 22 23 24 24 24 24 24 24 23 22 21 21 22 22 22
13 13 12 13 14 14 15 16 17 17 16 16 16 17 19 21 23 23 23 23 23 21 20 19 20 21 22 23 24 25 27 28 29 29 29 29 29 29 28 28 28 28 28
14 13 13 13 14 15 15 16 17 18 18 17 17 18 18 19 21 22 23 23 23 22 22 22 24 25 26 27 28 28 30 32 33 34 34 34 34 34 34 34 34 34 34
15 14 13 13 14 15 16 16 17 18 19 20 20 20 20 20 21 21 22 23 24 25 26 27 29 30 32 33 33 34 35 36 37 38 38 38 38 38 39 39 39 39 39
15 14 14 14 14 15 16 17 18 20 21 22 23 23 23 24 24 24 24 25 26 28 29 31 33 35 36 37 38 38 39 40 41 42 42 42 41 41 41 42 42 42 43
15 15 14 14 14 15 16 17 18 20 22 23 24 25 26 27 27 27 27 28 29 30 32 34 37 38 40 41 41 42 42 43 44 45 45 45 44 44 43 43 43 44 44
17 16 16 15 15 16 16 17 19 20 22 24 25 26 27 28 28 29 29 30 31 33 35 37 39 41 42 42 43 43 44 44 44 45 46 46 46 46 46 45 45 46 46
19 18 17 17 17 17 18 19 20 21 23 24 25 26 27 28 28 30 31 32 34 36 38 40 41 42 42 43 43 43 43 43 44 44 45 46 47 47 48 48 48 48 49
20 19 19 19 19 20 21 22 22 23 23 24 24 24 25 26 28 30 32 34 36 38 40 41 41 41 41 41 41 41 42 42 43 44 44 45 46 46 47 48 49 50 50
22 21 20 21 21 22 23 24 24 24 24 24 24 24 25 27 29 31 34 36 37 39 40 40 39 38 37 38 38 39 39 40 41 43 44 45 46 47 48 49 50 51 52
22 22 21 22 22 24 25 25 25 25 25 25 24 25 27 29 31 33 35 37 37 38 38 38 37 37 37 38 39 40 41 43 45 46 48 49 50 51 52 54 55 55 56
22 22 22 23 24 25 26 27 27 26 26 26 27 28 30 31 33 35 36 36 37 37 38 38 39 39 40 41 42 44 45 47 48 50 52 53 54 54 55 56 57 58 58
23 23 24 25 26 26 27 28 28 28 28 29 30 32 33 35 36 37 37 37 38 38 39 40 41 43 44 45 46 47 49 50 51 52 54 55 57 58 58 59 60 61 61
24 25 25 26 27 27 27 28 29 30 30 31 33 35 37 38 39 39 39 39 40 41 41 42 44 45 47 48 49 50 51 52 54 56 57 59 60 61 63 64 65 65 65
26 26 27 27 26 26 27 28 29 30 32 34 36 37 39 40 40 41 41 41 42 43 43 45 46 47 49 51 52 53 55 56 58 60 62 64 66 67 68 70 71 71 72
27 27 27 26 25 25 26 28 30 32 34 36 37 38 39 40 41 41 42 42 43 44 45 46 48 49 51 54 57 59 60 61 63 65 67 68 70 72 73 74 75 76 77
27 27 26 25 25 26 28 29 31 33 35 36 37 38 40 41 41 42 43 44 44 46 47 49 51 54 56 59 62 66 68 70 70 69 71 73 74 75 76 78 79 80 82
26 26 25 25 26 28 29 31 33 34 35 36 38 39 40 41 42 43 44 45 46 48 50 53 56 59 62 65 67 70 74 77 79 79 79 80 81 81 81 82 83 85 87
26 26 27 27 29 30 31 33 34 35 36 37 39 40 41 42 43 44 46 47 49 52 55 59 62 66 69 72 74 76 78 80 82 85 86 86 87 87 88 88 90 91 92
28 28 28 29 30 31 33 34 34 36 37 39 40 41 43 44 45 47 49 51 54 58 61 65 68 71 73 76 78 81 83 85 86 88 89 89 90 91 92 94 95 97 98

GEFSSE_500_meanwind_030.txt.gz
Wind_Speed
19 20 20 21 21 20 19 18 19 18 17 17 18 18 18 17 17 17 17 17 16 15 15 15 14 14 13 13 13 13 13 13 14 14 16 16 17 19 20 20 20 19 19
20 20 20 20 20 19 19 18 17 16 16 16 17 17 18 18 17 17 17 17 16 16 16 16 16 16 15 15 14 14 14 15 15 16 16 16 17 17 18 18 17 15 14
20 19 19 19 18 18 17 16 16 15 15 15 15 16 16 17 17 17 16 16 15 16 17 17 17 17 17 17 17 16 16 16 17 17 17 16 17 17 17 17 16 14 13
20 19 18 17 16 16 15 15 15 15 15 14 14 14 15 16 17 17 16 16 15 16 16 17 18 19 19 20 19 18 18 18 18 18 18 18 18 18 18 17 16 15 14
21 19 17 15 14 14 14 14 14 15 14 14 13 13 14 15 17 18 17 17 16 17 18 19 19 20 21 21 21 20 19 19 19 20 20 20 20 21 21 20 19 19 18
21 18 16 14 13 13 13 13 14 14 14 14 13 13 13 15 17 18 19 19 19 20 21 21 20 20 21 21 20 20 20 20 20 22 23 24 24 24 25 24 24 23 23
20 17 16 14 13 13 13 13 13 14 14 14 14 14 14 15 16 18 19 20 21 22 23 22 22 21 20 20 21 21 22 22 23 24 26 28 29 29 29 29 28 28 29
20 17 15 13 13 13 14 13 14 14 14 15 15 15 15 15 16 17 18 20 21 21 22 22 21 21 21 22 23 24 25 26 27 28 29 30 32 33 34 34 34 33 34
19 17 16 14 14 14 14 14 15 15 15 15 16 17 17 17 17 18 18 19 20 20 21 21 22 23 24 25 26 28 29 31 32 33 34 35 36 36 37 38 38 38 38
20 18 17 16 15 15 15 15 15 15 15 16 17 17 18 19 20 21 21 22 22 23 23 24 25 26 27 28 30 32 34 36 37 38 38 39 39 40 40 40 41 42 42
21 19 18 18 17 17 16 16 15 15 16 17 18 18 19 21 22 23 24 24 25 26 27 27 28 29 31 32 33 35 37 39 39 40 40 41 41 41 41 42 42 43 44
21 20 20 19 18 17 17 16 15 15 16 17 18 20 21 22 23 24 25 26 27 28 29 30 31 32 34 35 37 38 39 40 41 41 41 41 41 40 40 40 41 42 43
22 21 21 20 19 18 17 17 16 16 18 19 20 21 21 22 23 24 24 26 27 28 30 31 33 34 36 37 39 40 40 40 40 39 38 38 38 38 38 39 39 40 41
23 22 22 21 20 19 19 18 18 19 20 22 22 23 23 23 23 24 24 25 26 28 30 31 33 35 37 38 39 39 39 38 37 36 35 36 36 37 38 39 40 41 42
24 23 22 22 21 21 21 21 21 22 23 25 26 26 26 26 25 25 25 26 27 29 31 33 34 36 37 37 38 37 37 36 36 36 36 36 37 38 40 41 42 43 44
24 23 22 22 23 23 23 23 23 25 26 27 28 29 29 29 28 28 28 28 30 31 33 34 35 36 37 37 37 37 36 36 36 37 38 38 39 39 40 42 43 45 46
24 23 22 23 24 25 25 25 26 27 28 30 31 31 31 31 31 31 31 32 33 34 35 36 37 37 37 36 36 36 36 36 37 38 39 40 40 41 42 43 45 47 50
24 23 23 24 25 26 26 27 28 29 30 31 32 32 32 32 32 33 34 35 36 37 37 37 37 37 37 36 36 36 36 37 38 40 41 42 43 45 46 48 50 52 54
25 24 24 25 26 26 27 29 30 31 32 33 33 32 32 32 33 35 36 37 37 38 38 37 37 37 37 37 37 37 38 39 41 43 44 46 48 50 53 55 57 59 60
26 25 25 25 26 27 29 30 32 33 34 34 33 32 32 33 35 36 38 38 38 38 38 38 38 39 39 40 40 40 42 43 45 47 49 52 54 57 59 61 64 65 67
27 26 25 26 27 29 30 32 34 35 35 34 33 33 34 36 37 39 40 40 40 40 40 40 40 41 43 44 45 46 47 49 51 54 56 59 61 63 66 68 70 71 72
27 26 26 27 28 30 32 34 35 35 34 34 35 36 37 38 40 41 41 41 41 42 43 44 45 46 47 50 52 53 53 54 56 59 62 65 67 69 71 72 74 75 77
27 27 28 29 30 32 33 34 34 34 34 35 36 37 39 40 41 42 42 42 43 44 46 47 49 50 52 54 57 61 63 64 64 65 67 69 71 73 75 76 78 78 79
27 28 29 30 31 33 33 34 34 34 36 37 38 40 41 42 42 42 42 43 45 46 48 50 52 54 57 59 62 66 70 73 75 74 73 74 76 78 79 80 81 82 83
27 28 29 30 32 33 33 33 34 36 37 39 40 41 42 42 42 42 43 44 46 48 50 52 55 59 62 66 69 71 73 76 78 80 80 81 82 83 83 84 85 87 88
27 28 29 31 32 33 34 35 36 38 39 40 41 42 42 41 42 43 44 46 48 50 53 56 60 63 67 70 73 76 78 80 82 84 85 85 86 86 88 89 91 93 95

GEFSSE_500_meanwind_036.txt.gz
Wind_Speed
16 16 16 16 15 15 14 14 14 14 14 14 14 14 14 14 14 15 15 15 15 16 17 17 16 16 16 16 17 18 18 18 18 17 17 17 16 15 14 14 14 14 15
18 17 17 17 16 15 15 14 14 13 13 13 13 13 13 14 15 15 16 16 16 16 17 17 17 17 18 18 19 20 20 20 20 20 20 20 19 18 17 16 15 15 14
18 18 18 18 17 16 15 14 13 13 13 13 12 12 13 14 15 16 17 16 16 16 17 17 17 18 18 19 20 21 22 22 22 22 22 22 22 21 20 18 17 16 15
19 19 19 18 18 16 15 14 13 13 13 13 12 12 12 13 15 16 17 18 17 17 17 17 17 18 19 20 21 22 23 24 23 23 23 24 24 23 22 21 21 20 19
20 19 19 19 19 17 16 15 14 13 13 13 13 13 13 14 15 16 18 19 19 19 19 19 20 20 20 21 22 23 24 25 25 25 25 24 25 25 25 25 25 25 24
21 20 20 20 19 18 16 15 14 13 13 13 13 14 14 15 16 17 18 20 21 21 22 22 23 23 23 24 24 25 25 25 25 25 25 25 25 26 28 28 29 29 29
21 20 20 20 20 19 17 15 14 14 14 14 14 14 15 16 17 17 18 20 21 22 23 24 25 26 26 26 27 26 26 26 26 26 26 27 27 28 30 32 33 33 33
21 20 20 21 20 20 18 16 15 15 15 15 15 15 16 17 18 19 20 20 21 21 23 24 25 25 26 26 27 27 27 28 28 29 29 30 31 32 33 35 36 36 37
20 20 21 22 21 20 19 17 16 15 15 16 16 17 17 19 19 20 21 22 22 23 23 24 24 25 26 27 28 28 29 30 31 32 33 34 35 36 37 38 38 39 40
20 21 21 22 22 21 20 19 17 16 15 16 16 17 18 19 20 21 21 23 23 25 25 26 26 27 28 28 29 30 31 32 33 35 36 37 38 39 39 40 40 41 41
21 21 22 22 22 23 22 20 18 17 16 16 17 18 19 19 20 21 22 23 24 25 26 26 27 28 29 30 31 32 33 34 36 37 38 39 40 40 41 41 40 40 40
22 22 23 23 23 23 23 21 20 18 17 17 17 18 19 20 21 21 22 23 23 24 25 25 26 28 29 30 31 32 34 35 36 38 39 40 40 41 40 40 39 38 37
24 23 23 24 24 24 24 22 21 20 19 18 18 19 20 21 22 23 24 24 25 25 26 26 27 28 29 30 32 33 35 36 37 38 39 40 40 40 39 39 38 37 37
25 24 24 24 25 25 25 23 22 21 21 20 20 21 22 23 24 25 27 27 27 28 28 28 29 30 31 32 34 35 37 38 38 39 39 40 40 39 39 39 39 39 39
26 25 24 25 25 26 26 25 23 23 23 22 22 23 25 26 27 28 29 30 30 30 31 32 33 34 35 36 37 38 38 39 40 40 40 40 40 40 40 40 41 41 42
26 26 26 25 25 25 26 26 25 25 24 24 24 25 26 28 29 30 31 31 31 32 32 33 34 36 37 38 39 40 40 41 41 41 41 41 41 41 42 42 43 43 44
26 26 26 26 26 25 25 26 26 26 25 25 25 27 28 29 30 31 31 31 32 32 33 33 35 36 38 39 40 40 41 41 42 42 42 42 43 43 44 45 46 47 48
27 26 25 25 25 25 25 26 26 26 26 26 26 27 29 30 30 31 31 31 32 32 33 35 36 38 39 39 40 41 42 42 42 43 44 45 46 46 48 49 50 52 53
27 26 26 25 25 25 25 25 25 26 26 26 27 28 30 31 31 31 31 32 33 34 35 37 39 40 40 41 41 42 43 43 44 45 46 47 49 50 52 54 56 58 59
28 27 26 25 24 24 24 25 25 25 26 27 28 30 31 31 32 33 33 34 35 37 39 40 42 42 43 43 43 43 44 45 45 47 49 50 52 54 57 59 61 63 65
28 27 26 25 24 25 25 25 25 26 27 28 30 31 32 33 34 34 35 37 38 40 42 43 44 45 45 45 45 44 45 47 48 50 52 55 58 60 63 65 67 69 71
28 27 26 25 25 25 25 26 26 27 28 30 31 33 34 34 35 36 38 40 41 43 44 44 45 46 47 47 47 47 47 48 51 54 57 60 63 66 68 70 72 74 75
28 27 27 26 26 26 26 26 27 28 30 32 33 34 35 37 38 40 41 42 43 44 45 45 46 47 48 50 51 53 54 55 55 57 60 64 67 69 71 73 74 76 77
28 27 27 26 26 26 27 27 29 30 32 33 35 36 38 39 40 41 42 43 44 45 46 46 47 49 50 52 55 58 61 64 66 66 65 66 68 69 71 73 75 77 80
27 26 26 26 26 26 27 28 30 32 33 35 37 38 39 40 41 42 43 44 45 46 47 48 50 52 54 56 59 62 65 69 72 75 74 72 71 71 72 75 78 81 85
27 26 25 25 25 26 27 29 31 32 34 36 37 39 40 41 42 43 44 45 46 47 48 50 53 55 58 61 64 67 69 70 72 74 76 77 77 76 77 80 84 89 93

GEFSSE_500_meanwind_042.txt.gz
Wind_Speed
17 16 16 15 14 13 14 14 14 14 13 13 12 12 11 11 11 12 12 14 15 16 17 18 19 20 20 22 22 22 21 21 21 21 21 22 21 21 21 21 21 21 20
18 17 16 16 15 14 15 15 15 14 13 13 13 12 12 12 11 12 13 15 16 17 18 19 20 21 22 23 23 23 23 23 23 23 24 24 24 24 24 24 24 23 22
18 18 17 16 16 16 16 15 15 15 14 13 13 13 12 12 12 13 14 15 17 18 19 20 20 21 22 22 23 23 23 23 24 25 26 27 27 27 26 25 25 25 24
19 19 18 18 18 17 17 16 16 16 15 14 13 13 13 12 13 13 14 16 17 18 19 20 21 21 22 22 23 23 23 24 25 26 27 28 28 28 28 27 26 26 25
21 21 20 20 19 18 18 17 17 16 15 14 14 13 13 13 13 14 15 16 17 18 19 21 21 22 22 23 24 24 25 26 27 28 28 29 29 29 29 29 28 27 27
22 22 21 21 21 19 18 18 17 17 16 15 14 14 13 14 14 14 15 16 17 18 19 21 22 23 24 25 26 27 28 29 29 30 30 30 30 30 29 29 29 29 29
24 23 22 22 21 20 19 18 18 17 17 16 15 15 14 14 15 15 16 17 18 19 19 20 22 23 24 26 27 28 29 30 31 31 31 31 31 31 31 31 32 32 32
23 23 23 22 21 20 19 19 18 18 18 17 17 16 15 15 16 16 17 18 19 20 21 22 23 24 25 26 27 29 30 30 31 32 32 32 32 32 33 34 34 35 36
22 22 22 21 20 20 19 19 19 19 19 18 18 17 16 16 16 16 16 17 19 20 22 23 24 26 27 28 29 30 31 32 33 33 33 34 34 35 35 36 37 38 39
22 22 21 20 20 20 19 20 20 20 20 19 18 18 17 17 17 17 17 18 19 20 22 23 24 26 27 28 29 31 32 33 34 34 35 35 36 37 38 39 40 40 41
23 22 21 21 20 20 20 20 21 22 21 21 20 19 18 17 17 17 17 18 19 21 22 23 25 26 27 28 29 30 31 32 33 34 35 36 37 38 39 40 41 41 42
24 23 22 22 21 20 21 21 22 22 22 22 21 20 19 19 18 18 18 20 21 23 24 25 27 27 28 29 30 31 31 32 33 34 35 36 37 39 40 41 41 42 42
25 25 24 24 23 22 22 22 22 23 23 23 23 22 21 20 19 20 20 22 24 25 26 28 29 30 31 31 32 33 34 35 36 37 38 38 39 40 41 42 42 42 43
27 26 26 26 25 24 24 23 22 22 23 24 24 24 23 22 22 22 23 25 26 27 29 29 30 31 32 32 34 34 35 36 37 39 40 40 41 42 42 43 43 43 44
28 28 28 27 27 26 25 24 23 23 23 24 25 25 25 24 24 24 25 26 28 29 30 30 31 32 32 33 34 35 36 37 38 39 40 41 42 43 43 43 43 44 44
30 30 29 29 28 28 26 25 24 23 23 24 25 25 26 26 26 26 26 28 29 30 31 31 32 32 33 33 34 36 37 39 40 41 42 43 43 44 44 45 45 45 46
30 30 30 30 30 29 28 26 24 24 24 25 26 26 26 27 27 27 28 29 29 30 31 32 32 33 34 35 37 38 40 41 42 43 44 44 45 46 46 47 47 47 48
31 31 31 31 30 30 28 26 25 24 25 26 26 27 27 28 28 29 30 30 30 31 32 33 34 35 36 38 40 41 43 44 45 46 46 46 46 47 47 48 49 50 50
32 32 32 31 30 30 28 26 25 25 26 26 27 27 28 28 29 30 30 31 32 33 34 34 35 37 39 40 42 44 45 46 47 47 47 47 48 48 49 50 51 52 53
34 32 32 31 30 29 28 27 27 27 27 27 27 28 28 29 30 30 31 32 33 34 35 36 38 39 41 42 43 45 46 47 47 47 48 49 49 50 51 53 54 56 57
35 34 32 32 31 30 28 28 28 29 29 28 28 28 29 30 30 31 32 33 35 36 37 39 41 42 43 43 44 45 47 47 47 48 49 50 52 53 55 57 59 60 62
36 35 34 33 31 30 30 30 30 30 30 29 29 29 30 30 31 33 34 35 36 38 40 41 43 44 45 45 45 45 46 47 48 50 51 53 55 57 59 61 63 64 65
37 36 35 34 32 31 30 30 30 30 31 30 30 30 31 31 33 34 36 37 39 40 42 43 44 46 47 47 48 48 48 48 48 49 52 55 57 59 61 63 64 65 67
39 38 37 35 33 31 30 29 30 31 31 31 31 31 32 33 35 36 38 40 41 42 43 45 46 47 48 49 50 51 53 54 55 53 53 56 58 59 61 63 64 66 69
40 39 37 35 33 31 30 29 29 30 30 31 31 32 33 35 36 38 40 41 42 44 45 46 47 49 50 51 52 54 56 58 60 60 59 59 60 60 62 64 66 69 73
40 39 37 35 34 31 29 29 29 29 30 31 32 33 34 36 37 39 40 42 43 45 46 47 49 51 52 53 55 57 59 61 63 64 64 64 64 64 65 67 71 75 79

GEFSSE_500_meanwind_048.txt.gz
Wind_Speed
17 18 19 19 19 18 17 16 15 14 13 12 12 11 11 11 11 11 11 12 12 13 13 14 15 16 17 18 19 19 20 21 21 21 22 22 22 22 22 22 22 22 22
17 18 18 19 19 19 18 17 16 15 14 13 12 12 11 11 11 12 12 13 13 14 14 15 16 17 17 18 19 19 20 21 21 22 22 22 23 23 24 24 24 24 24
18 19 19 20 20 20 19 18 17 16 15 14 14 13 12 12 12 13 13 14 14 15 15 16 17 18 19 19 20 20 20 21 21 22 22 23 23 24 24 25 26 26 26
19 19 19 20 20 20 20 19 18 17 16 16 15 14 14 13 13 14 14 14 15 16 16 17 18 19 20 20 21 21 21 21 22 22 23 24 24 25 26 26 27 27 27
20 20 20 20 20 20 20 19 18 18 17 17 16 16 15 15 15 15 15 15 16 16 17 17 18 19 20 21 21 22 22 23 23 24 25 26 26 27 27 27 27 27 27
21 21 21 21 21 21 21 20 19 19 19 18 17 17 16 16 16 16 16 16 16 16 17 17 18 19 20 20 21 22 22 23 24 25 26 27 27 28 28 27 27 27 27
22 23 23 23 23 23 22 21 20 20 20 19 19 18 18 17 17 16 16 17 17 17 17 17 18 19 19 20 21 21 22 22 24 24 25 26 27 28 28 28 28 29 29
22 23 24 25 25 24 23 22 21 21 21 21 20 19 19 18 18 17 17 17 17 17 18 18 18 19 20 20 21 22 22 23 24 25 26 26 27 28 28 29 29 30 30
22 23 24 25 25 24 23 23 22 22 22 22 21 21 20 20 19 18 18 17 17 17 17 18 18 19 19 20 21 22 23 23 24 25 25 26 27 27 28 28 29 30 31
24 24 24 25 25 25 24 23 23 22 22 22 22 22 22 21 20 19 19 18 18 18 18 18 18 19 20 20 21 22 23 24 24 25 26 27 27 28 28 29 30 31 32
26 26 26 26 26 26 25 24 23 22 22 22 23 23 23 22 21 20 20 19 19 18 18 19 19 20 21 21 22 23 24 25 26 26 27 28 29 29 30 31 32 33 34
29 28 27 27 28 27 26 25 23 22 22 22 23 24 24 24 23 22 21 20 20 20 20 20 21 21 22 23 23 24 25 26 26 27 27 29 29 30 31 32 34 34 35
32 30 29 29 29 29 28 27 25 23 23 22 23 25 25 25 25 24 22 22 21 21 21 22 23 24 24 25 25 26 26 27 28 28 28 29 30 31 32 34 35 36 37
33 32 31 31 31 31 31 29 27 25 24 23 24 25 26 26 26 25 25 24 23 23 23 24 25 26 26 27 27 27 28 28 29 29 30 31 33 34 35 36 38 39 40
35 34 34 33 33 34 33 32 30 28 26 25 25 26 26 27 27 27 27 26 26 25 25 26 27 28 28 28 29 29 29 30 31 31 32 34 35 36 38 39 40 41 42
36 36 35 35 35 35 34 33 32 30 28 27 27 28 28 28 28 28 28 28 28 28 28 28 29 29 30 30 30 30 31 32 33 34 36 37 38 40 41 42 43 44 44
38 37 37 36 36 35 35 34 34 32 31 30 30 29 30 30 29 29 29 30 30 30 30 30 31 31 32 32 32 33 33 34 36 37 39 40 42 43 44 45 45 46 46
39 39 38 38 37 36 36 35 34 34 33 32 32 31 31 32 31 30 31 31 31 31 31 32 33 33 34 34 34 35 36 37 38 39 41 43 44 45 46 46 47 48 48
40 41 40 39 38 38 37 36 35 34 34 34 34 33 33 33 33 32 32 32 32 32 32 33 34 34 35 36 37 38 38 39 40 42 44 45 46 47 48 49 49 50 51
42 42 42 41 40 39 38 37 36 35 35 35 35 35 34 34 34 34 33 33 33 33 34 35 35 36 37 39 40 40 41 42 43 45 46 48 49 50 51 52 52 53 54
43 43 43 43 42 41 39 38 37 36 36 36 36 35 35 35 34 34 34 34 34 35 35 36 37 38 39 41 42 43 44 45 46 47 49 50 51 52 54 55 56 57 58
44 44 44 44 43 42 41 39 38 37 36 36 36 36 35 35 35 35 35 35 36 36 37 37 38 39 41 42 43 45 47 47 48 49 51 53 54 55 57 58 59 60 62
45 45 45 44 44 43 42 41 39 38 37 36 36 36 37 36 36 36 36 37 37 38 38 39 40 41 43 43 45 46 48 49 49 50 53 55 56 58 59 61 62 64 66
46 45 45 45 44 43 42 41 40 39 37 36 36 36 37 37 37 37 37 38 38 39 39 41 42 43 44 45 47 48 50 51 52 52 53 55 57 59 61 63 65 67 69
48 47 46 45 44 43 42 41 40 38 37 37 37 37 37 37 37 38 38 38 39 40 41 42 43 45 46 47 49 50 52 54 56 57 56 56 58 60 62 64 66 68 69
52 50 48 47 45 43 42 41 39 38 38 37 37 37 37 37 37 38 38 39 40 41 42 43 44 46 48 49 51 53 54 56 58 60 60 61 61 62 64 65 67 68 70

GEFSSE_500_meanwind_054.txt.gz
Wind_Speed
19 19 20 21 21 22 22 22 21 20 19 19 18 17 17 16 16 16 16 15 15 15 15 15 15 15 15 15 16 16 17 18 18 18 19 19 20 20 20 20 20 21 20
20 20 20 21 21 22 22 23 22 22 21 20 19 18 18 17 17 17 16 16 16 16 16 16 16 16 16 16 17 17 18 19 19 19 19 20 20 21 21 21 21 21 21
21 21 21 21 21 21 22 22 23 23 23 22 21 20 19 18 18 18 17 17 17 17 17 17 17 17 18 18 18 18 19 19 20 20 20 20 21 21 21 22 22 22 22
22 22 23 23 23 22 23 23 23 23 23 23 23 22 21 20 19 19 18 18 18 18 18 18 19 19 19 19 19 19 20 20 21 21 21 21 22 22 22 23 23 23 24
23 23 23 23 24 23 23 23 23 24 24 24 24 23 22 21 20 20 19 19 19 19 19 19 19 19 19 19 20 20 20 21 21 22 22 22 23 23 24 24 24 25 25
24 23 24 24 24 24 24 24 24 24 24 24 24 24 23 22 22 21 20 20 20 20 20 20 20 20 20 20 20 21 21 21 22 22 22 23 23 23 24 24 25 25 25
25 24 25 25 25 25 25 25 25 24 24 25 24 24 23 23 22 22 21 21 20 21 21 21 21 21 20 20 20 21 21 22 23 23 23 24 24 25 25 26 26 26 25
26 26 26 26 26 25 25 25 25 25 24 24 24 24 24 23 23 22 22 21 21 21 21 21 21 21 21 21 21 22 22 23 23 24 24 25 25 25 26 26 26 26 26
27 27 28 27 26 26 26 25 25 24 24 24 24 24 24 24 23 23 22 22 22 21 21 21 21 21 21 21 22 22 23 23 23 23 25 26 26 27 27 27 27 27 27
29 28 29 28 28 27 27 26 25 24 24 24 24 24 23 23 24 23 23 23 22 22 21 21 22 22 22 22 22 22 23 23 24 24 25 26 27 28 28 29 28 28 28
31 30 30 30 29 28 28 27 26 25 24 24 24 24 24 23 24 24 23 23 23 23 23 23 23 23 23 23 23 24 24 24 24 24 26 26 26 27 28 28 28 28 29
32 32 31 31 31 30 29 28 28 27 25 25 25 25 24 24 24 24 24 24 24 24 25 24 24 24 25 25 25 26 26 26 26 26 28 28 27 28 28 29 29 29 29
33 33 32 32 31 31 30 30 29 28 27 27 26 26 25 25 24 24 25 25 26 26 27 26 26 27 27 27 27 27 28 28 28 27 28 29 29 29 29 30 30 31 31
33 33 33 33 33 32 31 31 30 29 29 29 28 27 27 26 26 25 25 26 26 27 28 29 29 29 29 29 30 29 30 30 29 29 29 29 30 30 30 30 31 32 33
32 32 33 34 34 33 33 32 31 31 31 30 30 29 29 28 28 27 26 26 27 28 29 30 31 31 31 32 32 32 32 32 31 31 31 31 31 32 32 32 33 34 36
32 32 33 34 35 35 34 34 33 32 32 32 31 31 30 30 30 29 29 28 29 29 30 31 32 33 33 34 34 34 34 34 34 33 33 33 34 34 34 35 35 37 38
34 34 34 35 36 36 35 35 35 34 33 33 33 33 32 32 32 32 31 31 31 31 32 32 33 34 34 35 36 36 36 36 36 35 35 35 36 37 37 37 38 39 40
35 36 36 36 36 37 37 37 36 36 35 34 33 33 33 33 33 34 34 33 33 34 34 34 34 35 35 36 36 37 37 37 37 37 38 38 38 39 40 40 41 42 43
36 38 38 38 38 38 39 38 38 37 36 36 35 34 34 34 35 35 35 35 35 35 35 36 36 36 37 37 37 38 38 39 39 40 40 40 41 41 42 42 44 45 46
38 39 40 40 40 40 41 40 39 38 37 37 36 35 35 35 36 36 37 37 37 37 37 37 37 37 38 38 38 39 39 40 41 42 42 42 43 44 44 45 46 47 48
38 40 42 42 41 42 43 41 40 40 39 38 38 37 36 36 36 37 38 38 37 37 37 37 38 38 38 39 39 40 41 42 43 43 44 44 45 45 47 48 49 50 51
40 41 42 43 43 43 44 43 43 43 41 39 38 38 37 37 37 37 38 38 38 38 38 38 38 38 40 40 41 41 42 42 43 44 45 46 47 48 49 50 52 53 55
43 44 44 44 45 45 45 46 45 43 42 41 40 39 38 38 38 38 38 39 39 39 39 39 39 39 40 41 42 43 44 44 44 44 46 47 48 50 51 53 55 57 59
48 48 47 47 48 48 48 48 47 45 44 43 42 40 39 39 39 39 39 40 40 40 40 40 40 40 40 41 42 44 45 46 46 46 47 48 50 51 53 54 57 59 61
52 52 52 51 51 50 49 49 48 47 46 45 43 42 40 40 39 39 40 40 40 40 40 41 41 41 42 42 43 44 46 47 48 49 49 50 52 53 55 57 59 60 62
54 55 55 55 54 52 51 50 49 48 47 46 45 43 42 40 40 40 40 40 40 40 41 41 42 42 43 44 45 46 47 49 50 51 52 52 53 55 57 59 61 63 64

GEFSSE_500_meanwind_060.txt.gz
Wind_Speed
16 16 17 17 18 19 20 21 21 21 21 21 20 20 19 19 19 18 18 18 18 18 18 18 18 18 18 18 18 18 17 18 18 18 18 18 18 19 19 20 20 19 19
17 17 18 18 18 19 19 20 20 21 21 22 22 21 21 21 20 20 19 19 19 19 19 19 20 19 19 19 19 19 19 19 19 19 19 20 20 20 20 20 21 21 20
18 18 19 19 19 20 20 20 21 21 22 22 22 23 23 22 22 21 21 21 21 21 21 21 21 21 21 20 20 20 20 20 21 21 21 21 21 21 21 21 22 22 22
18 19 19 20 20 21 22 22 22 22 23 23 23 24 24 24 24 23 23 23 22 22 22 22 22 22 22 22 22 22 22 21 21 22 22 22 22 22 22 22 22 22 22
20 20 20 21 21 22 23 23 23 24 24 24 24 24 24 25 25 25 25 25 24 24 24 24 23 23 23 23 23 23 22 21 21 22 23 23 23 23 23 23 23 23 23
22 22 22 22 23 23 23 24 24 24 24 24 24 25 25 25 26 26 26 26 26 25 25 25 25 24 24 24 23 23 22 22 22 22 22 23 23 23 23 23 24 24 24
25 24 24 24 24 24 24 24 24 24 25 25 25 25 25 26 26 26 27 27 26 26 26 26 26 25 25 24 24 23 22 22 23 23 23 23 23 24 24 24 24 24 24
27 26 26 26 26 25 25 24 24 24 24 25 25 25 25 25 25 26 26 27 27 26 26 26 26 26 25 25 24 23 23 23 24 24 24 24 24 24 24 25 25 25 25
27 26 26 27 27 26 26 25 25 24 24 24 24 24 24 24 24 25 25 26 26 26 26 26 26 26 25 25 24 23 23 23 24 24 24 24 24 25 25 25 25 26 26
26 26 27 27 27 27 26 25 25 25 24 23 23 23 23 23 23 23 24 24 25 25 25 25 25 25 25 25 24 24 23 24 24 25 25 25 26 26 26 26 26 26 27
25 26 27 27 27 27 27 26 26 25 25 24 24 23 23 23 22 23 23 23 24 24 24 25 25 25 25 25 25 25 25 25 25 26 26 27 27 28 28 29 28 28 28
25 26 27 28 28 28 27 27 27 27 26 25 25 24 24 24 23 23 23 23 23 24 24 25 25 26 26 27 27 27 27 27 28 28 28 29 29 29 29 29 29 29 29
26 27 27 27 27 27 28 28 28 28 27 27 26 26 25 25 24 23 23 23 23 24 24 25 25 26 27 27 28 29 29 30 30 31 31 31 31 31 31 31 31 30 30
26 26 27 27 27 27 28 28 29 29 28 28 27 26 26 26 25 25 24 24 24 24 24 24 25 26 27 28 29 30 31 32 33 33 33 33 33 33 33 32 32 32 32
26 26 26 27 27 27 28 28 29 29 29 29 28 27 27 27 27 26 25 25 25 25 25 26 26 26 27 28 29 30 31 33 34 34 35 35 35 35 35 34 34 34 34
26 27 27 27 27 28 28 29 29 30 30 30 29 29 28 28 28 27 26 26 26 26 27 27 27 27 28 29 30 31 32 33 34 35 36 36 36 36 36 36 36 36 36
28 28 28 28 28 28 29 30 31 31 31 30 30 30 29 29 29 29 28 27 27 28 28 28 28 29 30 30 31 31 33 34 35 36 37 37 37 37 37 37 37 37 38
30 30 30 30 30 30 31 32 32 33 32 31 31 31 31 31 30 30 30 29 29 29 29 29 29 30 31 32 33 33 33 34 35 36 37 37 38 38 38 39 39 39 39
32 32 32 32 32 32 33 34 34 34 33 33 33 32 32 32 32 31 31 31 31 30 30 30 30 31 31 32 33 33 34 34 35 36 37 38 38 39 39 40 40 40 40
33 33 33 33 32 33 34 34 34 34 34 34 34 34 34 33 33 33 33 32 32 32 31 31 32 31 32 33 33 34 35 35 36 37 38 39 39 40 41 41 42 42 42
34 33 33 33 33 34 35 35 35 36 36 37 37 37 36 35 34 34 34 33 33 33 33 33 33 33 33 33 34 35 35 36 37 38 39 39 40 41 42 42 43 43 43
35 35 35 35 35 36 37 37 39 40 40 40 39 39 38 37 37 36 36 35 35 34 34 34 34 34 34 35 35 36 37 37 39 39 40 40 41 42 42 43 44 44 45
37 37 38 38 39 39 40 41 41 42 42 41 40 39 39 39 39 39 38 37 36 36 35 35 35 35 35 36 36 37 37 38 39 40 41 42 42 43 44 45 46 46 47
39 40 41 42 43 43 44 44 44 44 44 43 42 42 42 42 42 41 40 39 38 37 36 36 36 36 37 37 38 38 39 39 40 41 42 43 44 44 45 46 47 48 49
42 43 44 45 46 47 48 48 48 47 47 46 46 45 44 44 44 43 42 41 40 39 38 38 37 37 38 39 39 40 41 41 42 43 43 44 45 46 47 48 49 50 51
45 47 48 49 50 51 52 52 52 52 50 49 49 48 47 47 46 45 45 43 42 41 40 40 39 39 39 40 41 42 43 43 43 44 45 46 46 47 49 51 52 54 55

GEFSSE_500_meanwind_066.txt.gz
Wind_Speed
16 15 15 15 16 16 16 16 16 16 16 16 17 17 17 17 17 17 17 17 16 16 16 16 16 16 16 17 17 17 17 17 17 17 18 18 18 18 18 18 18 18 18
16 15 15 15 16 16 17 16 16 16 16 16 16 17 17 18 18 19 19 19 18 18 18 17 17 18 18 18 19 19 19 19 19 19 19 19 20 20 20 20 20 20 20
17 16 16 16 16 17 17 17 17 17 17 17 17 17 18 18 18 19 19 20 20 20 19 19 19 19 19 20 20 20 20 20 20 20 21 21 21 21 21 21 21 21 21
18 17 17 17 17 17 17 18 18 18 18 18 18 18 18 19 19 19 20 20 21 21 21 21 21 20 20 20 21 22 22 22 22 22 21 21 21 22 22 22 22 22 22
19 18 18 17 17 17 17 17 18 18 18 18 19 19 18 18 19 19 20 20 21 21 21 21 22 21 21 22 22 23 24 23 23 22 22 22 22 22 22 22 22 22 22
20 19 19 19 19 18 18 18 18 18 19 19 19 19 19 19 19 19 19 20 20 21 21 22 22 22 22 23 23 24 25 24 24 23 23 23 23 22 23 23 23 23 23
23 22 22 21 21 20 20 20 20 20 20 20 20 20 20 19 19 19 19 20 20 21 21 21 22 22 23 23 23 24 24 25 24 24 24 24 23 23 23 23 23 23 23
25 25 24 24 23 23 22 22 21 21 21 21 21 21 20 20 20 20 20 19 20 20 21 21 22 22 22 23 23 24 24 24 24 24 24 24 24 23 23 23 23 23 23
27 26 26 25 25 24 24 23 23 22 22 21 21 21 21 20 20 21 20 20 20 20 21 21 21 21 22 22 23 24 24 24 24 24 24 24 24 24 24 24 24 24 25
28 27 27 26 26 25 25 24 23 22 22 21 21 21 21 20 21 21 21 21 21 21 21 21 21 21 22 22 23 24 24 25 25 25 25 25 25 25 25 25 26 26 26
28 28 27 26 26 25 25 24 23 23 22 22 22 22 21 21 21 21 22 22 22 22 22 21 21 22 22 23 23 24 24 25 26 26 27 27 27 27 27 27 27 28 28
29 28 27 27 26 25 25 24 24 24 23 23 23 22 22 22 22 23 23 23 23 23 23 23 23 23 23 24 24 24 25 25 26 27 28 29 29 29 30 30 30 30 30
29 28 27 26 26 26 25 25 25 24 24 24 23 23 23 23 23 23 23 24 24 23 24 24 24 24 24 24 25 25 26 26 27 27 28 29 30 31 31 32 32 32 32
29 28 28 27 27 26 26 26 26 25 25 25 24 23 23 23 23 23 24 24 24 24 24 24 25 25 25 26 26 26 27 28 28 28 28 29 30 30 31 32 32 33 33
30 30 29 29 28 28 27 27 27 27 27 26 25 25 24 24 24 24 24 25 25 25 25 26 26 26 26 27 27 28 28 29 29 30 30 31 31 32 32 33 33 33 34
31 31 32 31 31 30 29 28 29 29 28 28 27 26 26 26 26 26 26 26 26 27 27 27 27 27 28 28 28 29 30 30 31 32 32 32 33 33 34 34 34 34 35
32 33 33 33 33 31 30 30 30 30 30 29 29 28 28 28 28 27 27 27 28 28 28 29 29 29 29 30 30 30 31 32 32 32 32 33 33 33 34 34 34 34 35
34 35 35 36 35 34 33 32 32 32 32 31 31 30 30 30 30 30 29 30 30 30 30 30 30 31 31 31 32 32 32 32 32 33 33 33 33 34 34 34 34 34 35
36 37 37 37 36 36 35 35 35 34 33 33 33 32 32 32 32 32 32 32 32 32 32 32 33 33 33 33 33 33 33 33 33 34 34 34 34 34 34 34 35 35 36
37 38 38 38 38 37 37 37 36 36 35 35 35 35 35 34 34 34 34 34 35 34 34 35 35 35 35 35 35 35 35 35 35 35 35 35 36 35 35 36 36 36 37
38 39 39 39 39 39 38 38 37 37 37 37 37 37 37 36 36 36 36 36 37 37 37 37 37 36 36 37 37 37 36 36 36 36 36 37 37 37 36 37 38 38 39
39 39 39 39 40 40 39 39 39 39 40 39 39 39 38 38 38 39 39 39 40 40 40 39 39 39 39 38 38 38 38 37 37 37 37 38 38 37 38 39 39 39 40
40 40 40 40 41 41 41 41 42 42 41 41 40 40 40 41 42 42 42 42 43 42 42 42 42 41 41 41 40 40 40 39 39 39 39 39 39 40 40 40 41 41 42
40 40 41 41 42 42 43 43 43 43 43 42 43 43 44 44 45 45 45 45 45 45 45 45 44 44 43 42 42 42 42 42 41 41 40 40 41 41 42 42 43 43 44
41 41 42 43 43 44 45 45 45 45 45 45 46 46 46 47 47 47 47 47 47 47 47 47 46 45 45 45 44 44 43 43 43 43 42 42 42 43 44 45 45 46 47
41 42 43 43 44 45 46 47 48 48 48 48 48 49 49 50 50 50 50 50 49 49 49 48 48 48 47 47 46 46 45 45 44 44 44 44 44 45 46 47 48 49 50

GEFSSE_500_meanwind_072.txt.gz
Wind_Speed
15 15 15 15 15 14 14 14 14 14 14 14 14 15 15 16 16 16 16 16 16 16 16 15 15 15 15 15 15 15 16 17 17 17 17 17 17 17 17 17 17 17 17
16 16 15 15 15 15 15 15 15 15 15 15 15 15 16 16 16 17 17 17 17 18 18 18 18 18 17 17 17 17 18 18 18 19 19 19 19 19 19 18 18 18 18
18 17 16 16 16 16 16 16 16 15 15 16 16 16 16 17 17 17 18 18 19 19 19 19 19 19 19 19 18 19 19 19 19 20 20 21 21 21 21 20 20 19 19
19 18 17 17 17 16 16 16 16 16 16 16 16 16 17 17 18 18 18 18 19 19 19 19 20 20 20 20 20 20 20 20 21 21 22 22 22 22 22 21 21 21 20
20 19 18 18 17 16 16 16 15 15 15 16 16 16 17 17 17 18 18 18 18 18 18 19 20 20 20 20 20 20 21 21 22 22 22 23 23 23 22 22 22 21 21
21 20 19 18 17 16 16 16 16 16 16 16 17 17 17 18 18 18 18 18 18 19 19 20 20 20 20 20 20 21 21 21 22 22 23 23 23 23 23 23 22 22 21
22 21 20 19 19 18 17 17 17 17 18 18 18 18 19 19 19 19 19 19 20 20 20 20 20 20 20 20 21 21 21 21 21 22 22 23 23 24 23 23 23 22 22
23 22 22 21 21 20 19 19 19 19 19 19 20 20 20 20 20 20 20 20 20 20 20 20 20 21 21 21 21 21 21 21 21 22 22 23 23 24 24 24 23 23 23
24 24 24 23 23 22 21 21 21 21 21 20 20 20 20 20 20 20 20 20 20 21 21 21 21 21 21 21 21 21 22 22 22 22 23 23 24 24 24 24 24 24 24
25 25 26 26 25 25 24 23 22 22 21 21 20 20 20 20 20 20 20 20 20 21 21 21 21 21 22 22 22 22 22 22 23 23 24 24 24 25 25 26 26 26 26
28 28 28 28 28 27 26 25 24 23 22 21 21 20 20 20 20 20 20 20 20 20 20 21 21 21 21 22 22 22 22 23 23 24 24 25 25 25 26 26 27 27 28
31 31 30 30 29 29 28 26 25 24 23 22 21 21 20 20 20 20 20 20 20 20 21 21 21 21 21 21 22 22 23 23 23 24 24 25 25 26 26 26 26 27 28
32 32 31 31 30 30 29 28 26 25 24 23 22 22 21 21 20 20 20 20 20 21 21 21 21 22 21 22 22 22 23 23 23 24 24 25 25 26 26 27 27 28 28
33 32 32 32 31 31 30 29 28 27 26 25 24 23 22 22 21 21 21 21 21 21 22 22 22 22 22 22 22 23 23 24 24 25 25 25 26 26 27 28 28 29 29
33 33 33 33 32 32 31 31 29 29 28 27 26 25 24 23 23 22 22 22 23 23 23 23 23 23 23 23 23 24 24 24 25 25 26 26 27 27 28 28 29 29 29
34 33 33 33 33 33 32 32 31 31 30 29 27 27 26 25 25 24 24 24 24 24 24 24 24 24 25 25 25 25 26 26 27 27 27 27 28 28 28 29 29 29 29
35 35 34 34 34 34 34 33 33 32 32 31 30 29 29 28 27 27 27 26 26 26 26 26 26 26 27 27 27 27 27 28 28 28 29 29 29 29 29 29 30 30 31
36 35 35 35 35 35 35 35 35 34 34 33 32 31 31 31 30 30 29 29 29 29 29 29 29 29 29 29 29 29 29 30 30 30 30 30 30 30 31 31 31 31 31
36 36 36 37 37 37 37 37 37 36 36 35 35 34 34 34 34 33 32 32 32 32 31 31 31 31 31 31 31 31 31 32 32 32 32 32 32 32 32 32 32 32 32
37 37 37 37 38 38 39 39 39 38 38 38 37 37 37 37 37 36 35 35 35 35 34 34 34 34 34 34 34 34 34 34 34 34 34 34 35 35 35 34 34 34 34
38 38 38 38 39 40 40 40 40 40 40 40 40 40 40 39 39 38 38 38 38 38 38 38 37 37 37 37 37 37 37 37 37 37 37 37 37 37 37 37 36 37 37
38 38 39 39 40 40 41 41 42 42 43 42 42 42 41 41 41 41 41 41 41 41 41 40 40 40 40 40 40 40 40 39 39 40 39 39 39 39 39 39 39 40 40
39 39 39 39 40 41 42 42 43 44 44 43 43 43 43 44 44 44 44 44 44 44 44 44 44 44 44 43 43 43 43 42 42 42 42 42 41 42 42 42 42 43 42
40 39 39 40 40 41 42 43 44 44 44 44 44 44 45 46 46 47 47 47 47 47 47 47 47 47 47 46 46 46 46 46 46 45 44 44 44 44 45 45 45 45 45
40 40 40 40 41 41 42 43 44 44 44 45 45 45 46 47 48 49 49 50 50 50 50 50 50 50 49 49 49 49 49 49 49 48 48 47 47 47 47 48 48 48 48
40 40 40 40 41 41 42 43 43 43 44 45 45 46 47 48 49 50 51 52 52 52 53 53 53 53 53 52 52 52 52 52 52 51 51 50 49 49 50 50 50 50 51

GEFSSE_500_meanwind_078.txt.gz
Wind_Speed
16 15 14 14 13 13 12 12 12 12 12 12 13 13 13 13 13 14 14 14 15 15 16 16 17 17 17 17 18 17 17 18 18 18 18 18 19 19 19 19 19 19 19
16 15 15 14 13 13 12 12 12 13 13 13 13 14 14 14 14 15 15 16 16 17 17 17 18 18 18 18 18 18 19 19 19 19 19 19 20 20 20 20 20 20 20
17 16 16 15 14 13 13 13 13 13 14 14 14 15 15 15 15 16 16 16 16 17 17 17 17 17 18 18 18 19 19 19 19 20 20 20 20 20 21 21 21 21 20
19 18 17 15 15 14 14 14 14 14 14 15 15 15 14 15 15 15 16 16 17 17 17 17 17 18 18 19 19 19 19 19 20 20 20 21 21 21 21 21 21 21 21
21 19 18 17 16 15 15 15 14 14 14 14 14 14 15 15 16 16 17 17 17 17 17 17 17 18 18 19 19 19 19 20 20 20 20 21 21 21 21 21 21 21 21
22 21 20 18 17 16 15 15 15 15 15 15 15 15 16 16 16 17 17 17 17 17 18 18 18 19 19 19 19 19 19 20 20 20 20 21 21 21 21 21 21 21 21
24 22 21 20 19 18 17 16 16 16 16 16 16 16 17 17 17 18 18 18 18 17 18 18 18 18 18 19 19 19 20 20 20 20 20 20 21 21 21 21 22 22 21
25 24 23 22 21 19 18 18 18 17 17 18 18 18 18 18 18 18 18 18 17 17 17 17 17 17 17 18 18 19 19 19 19 19 20 20 20 21 21 21 22 22 22
27 27 25 24 23 22 20 19 19 19 19 19 19 19 18 18 18 18 18 17 17 17 17 17 17 16 17 17 17 18 18 19 19 19 19 20 20 21 21 22 22 22 23
29 29 28 26 25 24 23 21 20 20 20 20 20 19 19 18 18 18 18 17 17 16 16 16 16 16 16 17 17 18 18 18 18 18 19 20 20 21 21 21 21 22 22
31 30 29 28 27 26 24 23 22 21 21 21 20 20 19 19 18 18 18 17 17 16 16 16 16 16 16 17 17 17 17 17 17 18 18 19 19 20 20 21 21 22 22
33 32 31 30 29 27 26 25 24 23 22 22 21 20 20 19 19 18 18 18 17 16 16 16 16 16 16 17 17 17 17 17 17 18 18 19 19 20 20 21 22 22 23
35 33 32 31 30 29 27 27 26 25 24 23 22 21 21 20 20 19 19 18 17 17 17 17 17 17 17 17 18 18 18 18 18 18 19 19 20 20 21 21 22 23 23
36 35 33 32 31 30 29 28 27 26 25 24 23 22 22 21 21 20 20 19 19 19 19 19 19 19 19 19 19 19 19 19 19 19 20 20 21 22 22 23 23 24 24
37 36 35 33 32 31 30 29 28 28 27 26 25 24 23 23 22 22 22 21 21 21 21 21 21 21 21 21 21 21 21 21 20 21 22 22 23 23 24 24 25 25 25
38 36 35 34 33 32 31 31 30 29 28 27 26 25 25 24 24 24 24 23 23 23 23 23 23 23 24 24 24 24 24 24 23 23 24 24 25 25 25 26 26 26 26
38 37 36 35 34 33 33 32 31 31 30 29 28 27 27 26 26 26 26 26 26 26 26 26 26 26 27 27 27 27 27 27 27 26 26 27 27 27 27 27 28 28 28
39 38 37 36 35 35 34 33 33 32 31 30 29 29 29 29 29 28 28 29 29 29 29 29 29 29 30 30 30 30 30 30 30 30 29 29 30 30 30 30 30 30 30
40 38 38 37 36 36 36 35 34 33 32 31 31 31 31 31 31 31 31 31 32 32 32 32 32 33 33 33 33 33 33 34 34 33 33 33 32 32 33 33 33 33 33
41 39 39 38 38 37 37 35 34 34 34 33 33 33 33 34 34 34 34 34 35 35 35 35 36 36 37 37 37 37 37 37 37 36 36 36 36 36 35 35 36 36 36
41 40 39 39 39 38 37 36 35 35 36 35 35 35 35 36 37 37 37 37 37 37 38 38 39 39 40 40 41 41 41 40 40 40 40 40 39 39 39 38 39 39 39
41 41 40 39 39 38 38 37 37 37 37 37 37 37 38 38 39 39 39 39 40 40 41 41 41 42 43 43 44 45 44 44 43 43 43 43 43 43 43 42 42 42 41
42 41 40 40 40 39 38 38 38 38 38 38 38 39 40 41 41 41 41 42 42 43 43 43 44 45 46 46 47 48 48 47 47 47 47 47 47 46 45 45 45 44 44
42 41 41 40 40 40 39 39 39 39 39 40 41 41 41 42 42 43 43 44 44 45 45 46 47 47 48 49 50 50 51 52 51 50 50 50 49 49 48 48 48 47 47
42 41 41 40 40 40 40 40 40 41 41 41 42 42 43 43 44 44 45 45 46 47 47 48 48 49 50 51 52 53 54 55 54 54 53 53 52 52 51 50 50 50 50
42 41 41 41 41 41 41 41 41 41 42 42 43 43 44 44 45 46 47 47 47 48 49 49 50 51 52 53 54 54 55 56 56 57 57 56 56 54 54 53 53 53 53

GEFSSE_500_meanwind_084.txt.gz
Wind_Speed
17 16 14 13 12 11 10 9 9 8 8 8 8 8 8 8 9 9 10 10 11 11 12 12 13 13 13 13 13 13 14 14 15 15 16 16 17 17 17 18 18 18 18
18 16 15 14 13 12 11 10 9 9 8 8 8 9 9 9 10 10 11 11 11 12 12 12 13 13 13 13 14 14 15 15 15 16 16 17 17 17 18 18 18 18 19
18 17 16 14 13 12 11 10 10 9 9 9 9 9 10 10 10 10 11 11 11 12 12 13 13 13 13 14 14 14 15 15 16 16 17 17 17 17 18 18 18 19 19
18 18 17 15 13 12 12 11 11 10 10 10 10 10 10 10 10 11 11 11 12 12 12 12 13 13 13 14 14 15 15 16 16 17 17 17 17 17 18 18 18 18 19
19 19 17 16 14 13 12 12 12 11 11 10 10 11 11 11 11 11 11 12 12 12 13 13 13 13 13 14 14 15 15 15 16 16 16 17 17 17 17 17 17 18 18
21 20 18 17 16 14 14 13 12 12 11 11 11 11 11 11 12 12 12 12 13 13 13 13 13 13 13 13 13 14 14 15 15 15 16 16 16 16 16 17 17 17 17
23 22 20 19 17 16 15 14 14 13 13 13 12 12 12 13 13 13 13 13 13 13 13 13 13 13 13 13 13 13 14 14 15 15 15 15 15 15 16 16 16 17 17
26 24 22 21 19 18 16 16 15 15 15 14 14 14 14 14 14 14 14 14 14 13 13 13 13 13 13 13 13 13 14 14 14 15 15 14 14 15 15 15 16 16 17
28 26 24 23 21 20 19 18 17 17 16 16 15 15 15 15 15 15 15 14 14 14 14 13 13 13 13 13 13 13 14 14 14 14 14 14 15 15 15 15 16 16 16
30 28 26 25 24 22 21 20 19 19 18 18 17 17 17 17 16 16 16 15 15 15 14 14 14 14 13 13 13 14 14 14 14 14 14 14 15 15 15 16 16 16 16
32 30 29 27 26 25 23 22 21 21 20 19 19 18 18 18 18 17 17 16 16 16 16 15 15 14 14 14 14 15 15 15 15 15 15 15 16 16 16 16 17 17 17
34 33 31 30 29 27 26 25 23 22 21 21 20 20 20 19 19 19 18 18 17 17 17 16 16 16 16 16 16 16 17 17 17 17 17 17 17 17 17 18 18 18 19
37 35 34 33 31 29 28 27 26 25 23 22 22 21 21 21 20 20 20 19 19 19 18 18 18 18 18 18 18 18 18 19 19 19 19 19 19 19 19 20 20 21 21
38 37 36 35 33 31 30 29 28 27 25 24 23 22 22 22 21 21 21 21 21 20 20 20 20 20 20 20 20 20 21 21 22 22 22 22 22 22 22 22 23 23 23
40 39 37 36 35 33 32 31 30 29 27 26 25 24 23 23 23 23 23 23 23 22 22 22 22 22 23 23 23 23 23 23 24 25 25 25 25 26 26 26 26 26 26
41 40 39 37 36 35 34 33 32 30 29 28 26 25 25 24 24 24 24 24 24 24 24 24 24 24 25 25 26 26 26 26 27 28 28 28 28 29 29 29 29 29 29
42 41 40 39 38 37 36 34 33 32 30 29 28 27 27 26 26 26 26 26 26 25 25 26 26 27 27 28 28 29 29 29 30 30 31 31 32 32 32 32 32 32 32
43 42 41 41 39 38 37 36 34 33 32 30 30 29 28 28 28 27 27 27 27 27 27 28 29 30 30 31 32 32 32 32 32 33 33 34 35 35 35 35 35 35 35
44 43 43 42 41 39 39 37 36 34 33 32 32 31 31 30 29 29 29 29 29 29 29 30 31 32 33 34 35 35 35 36 36 36 36 37 37 38 38 38 38 39 39
46 45 44 44 42 41 40 39 37 35 34 34 34 33 32 31 31 31 31 31 31 31 32 33 33 34 35 36 37 37 38 38 38 39 39 40 40 41 41 41 41 42 42
47 46 45 43 43 42 40 39 38 37 36 36 35 34 34 33 33 33 32 32 33 33 34 35 35 36 37 38 39 39 40 40 40 41 42 43 43 43 43 44 44 45 45
48 47 45 44 43 42 41 40 39 38 38 37 36 35 35 35 35 35 34 34 34 35 35 36 38 38 39 40 41 42 42 42 42 44 45 45 45 45 46 46 47 47 47
48 47 46 45 44 43 42 41 40 40 39 38 37 36 36 36 36 36 36 36 37 37 38 39 40 40 41 42 43 44 45 45 45 45 46 47 47 48 48 49 49 50 50
47 47 46 46 45 44 43 42 41 40 39 38 38 38 38 38 38 38 38 38 39 39 40 40 41 42 43 44 45 46 47 47 47 47 46 47 49 50 50 51 51 51 51
48 48 47 47 46 44 43 42 41 41 40 40 40 40 40 40 39 39 39 40 41 41 42 43 43 44 45 46 47 47 47 48 48 48 48 49 50 50 51 52 52 52 52
48 48 48 47 46 45 45 44 43 42 41 41 41 41 41 41 41 41 41 42 43 43 44 45 45 46 47 47 47 48 48 48 48 49 50 51 51 51 52 53 54 54 54